Погода в Туркменабате

Погода в Туркменабате : погода сейчас, прогноз погоды и архив. Всё, что Вы хотите узнать о погоде в Туркменабате!

Хотите узнать прогноз погоды в Туркменабате? Тогда Вам сюда: Погода в Туркменабате

Поиск расширенной информации на нашем сайте:

Другие новости

Новости СМИ2

Главная страница сайта

Новости сайта

03.07.2017

Напоминаем, что на нашем специализированном сайте Метеоцентр.Азия вы можете получить высокодетализированные автоматические прогнозы погоды по пунктам России, СНГ и мира в авиационном формате (включающие направление и скорость ветра, видимость, явления погоды, количество и форму облачности, нижнюю и верхнюю границу облачности).

Рекомендуем: предложения турфирм: туры ОАЭ цены 2015

Погода в Туркменабате - сегодня

Время (UTC), дата Ветер
(°,м/с) 
Видим.   Явления Облачность Т
(°С)
Тd
(°С)
f(%) Тe
(°С)
Pmin
(гПа)
dP
(гПа)
Po
(мм)
O2
(г/м3)
Тmin Tmax R s Состояние
почвы
12 17.02.18 070 (В) 10 км    4/0 верхняя 
[Ci fib]
+8.6 -0.7 52 +7  1029.6  -1.7  754  295           
15 17.02.18 050 (СВ) 4000 м    9/0 верхняя 
[Ci fib]
+5.8 +0.4 68 +6  1028.9  -0.9  754  297    +8.6       
18 17.02.18 040 (СВ) 4000 м    9/0 верхняя 
[Ci fib]
+3 +0.3 82 +1  1028.6  -0.5  753  300    +8.6       
21 17.02.18 360 (С) 4000 м    9/0 средняя 
[Ac trans]
+0.4 -1.9 85 -1  1027.8  -1.1  753  303           
00 18.02.18 020 (С) 4000 м    9/0 средняя 
[Ac trans]
-0.5 -2.6 86 -3  1026  -1.4  752  304           
03 18.02.18 020 (С) 10 км    3/0 верхняя 
[Ci fib]
-1.2 -3.7 83 -2  1026.4  752  305           
06 18.02.18 020 (С) 10 км    ясно 
+3 -2.8 66 +2  1026.3  0.3  752  300  -1.4         
09 18.02.18 020 (С) 10 км    4/0 верхняя 
[Ci fib]
+9.7 -1.4 46 +9  1003.8  -2.4  750  292           
12 18.02.18 020 (С) 10 км    ясно 
+11.3 -0.2 45 +11  1021.6  -1.6  749  290           
15 18.02.18 020 (С) 4000 м    4/0 верхняя 
[Ci fib]
+6.7 +2.1 72 +5  1020.8  -1.1  748  294    +11.3       
18 18.02.18 050 (СВ) 4000 м    ясно 
+2.4 -0.3 82 +2  1020  -1.1  747  298    +11.3       
21 18.02.18 050 (СВ) 4000 м    ясно 
+1.2 -1.4 83 -1  1018  -2.1  746  299           
00 19.02.18 050 (СВ) 4000 м    4/0 средняя 
[Ac trans]
+0.8 -2.8 77 -2  1016.2  -1.8  744  299           
03 19.02.18 020 (С) 10 км    10/4 1500 м средняя 
[Sc|Ac As]
+1.6 -2.2 76 1015.6  -0.5  744  298           
06 19.02.18 050 (СВ) 10 км    10/10 1000 м кучево-дожд. 
[Cb cap]
+4 -2.2 64 +2  1015.1  -0.3  744  296  +0.6         
09 19.02.18 050 (СВ) 10 км    10/10 1000 м кучево-дожд. 
[Cb cap]
+10.7 -4.1 35 +10  1012.9  -1.7  742  288           
12 19.02.18 020 (С) 10 км    10/10 1000 м кучево-дожд. 
[Cb cap]
+13.9 +0.4 40 +14  1011.3  -1.2  741  284           
15 19.02.18 360 (С) 4000 м    10/10 1000 м кучево-дожд. 
[Cb cap]
+9.3 +2.5 62 +9  1011.9  0.2  742  289    +14.1       
18 19.02.18 340 (С) 4000 м    9/9 1000 м кучево-дожд. 
[Cb cap]
+7.8 +0.4 59 +7  1013.1  742  291          мокрая 
21 19.02.18 290 (З) 4000 м    9/9 1000 м кучево-дожд. 
[Cb cap]
+6 -0.3 64 +4  1012.8  -0.4  742  293           
00 20.02.18 270 (З) 4000 м  {ливн. осадки}  9/9 1000 м кучево-дожд. 
[Cb cap]
+5.5 +0.6 71 +3  1013.9  743  293           
03 20.02.18 180 (Ю) 10 км    9/9 1500 м 
[Sc]
-1.8 -6 73 -3  1032.6  0.8  756  307           
06 20.02.18 290 (З) 10 км    9/9 1000 м 
[Sc]
+1.1 -4.1 68 -2  1029.8  3.8  754  303  -1.8         
09 20.02.18 270 (З) 10 км    10/5 600 м средняя 
[Sc|Ac As]
+5.9 -3.5 51 +4  1018.9  2.2  746  295           
12 20.02.18 270 (З) 10 км  слаб. ливневой дождь  10/10 1000 м кучево-дожд. 
[Cb cap]
+4.6 +0.7 76 +2  1019.9  0.9  747  296           
Время (UTC), дата Ветер
(°,м/с) 
Видим.   Явления Облачность Т
(°С)
Тd
(°С)
f(%) Тe
(°С)
Pmin
(гПа)
dP
(гПа)
Po
(мм)
O2
(г/м3)
Тmin Tmax R s Состояние
почвы

Для получения пояснительной информации подведите курсор к названию столбца.

ПОГОДА в Туркменабате - архив

Всё, что Вы хотите узнать о погоде в Туркменабате - удобно и подробно!

Выберите нужную дату (начиная с 1 января 2015* года) и нажмите кнопку "Найти".
Будут отображены архивные сводки погоды по пункту Туркменабат, начиная с указанной даты.


Отображать данные в формате CSV (для использования в таблицах Excel)


Внимание! Наш архив погоды предназначен исключительно для личного некоммерческого использования в познавательных целях. Если Вам необходимы официальные справки о состоянии погоды (для производственных, юридических, коммерческих и т.п. целей), обращайтесь в органы Росгидромета.

*Примечание: данная дата относится к архиву по метеостанциям СССР (Россия, СНГ, Балтия).
Архив по метеостанциям Зарубежной Европы и Азии (кроме Китая) хранится 10 дней, по другим регионам земного шара (Китай, Африка, Америка, Австралия, Океания) - 1 день.

Туркменабат - район местоположения метеостанции


Название, широта, долгота, высота метеостанции:
Туркменабат (Чарджоу) 39.1°ш. 63.6°д. 190 м над ур. моря [Туркменистан]

Дополнительная информация

В oтличие oт бoльшинства пoгoдных сайтoв мы публикуем пoдрoбную метеoинфoрмацию в детальнoм прoфессиoнальнoм фoрмате.

Характеристики температуры и влажнoсти вoздуха измеряются на высoте 2 м в тени вдали oт зданий и деревьев.
Скoрoсть ветра измеряется на высoте 10 м (на урoвне рoста челoвека скoрoсть ветра ниже в 1.5-2 раза). Если метеoстанция нахoдится в гoрoде или в лесу, тo скoрoсть ветра занижена на 2-4 м/с пo сравнению с oткрытым местoм. Скoрoсть ветра над акватoриями крупных рек и oзёр, а также на вершинах хoлмoв на 2-5 м/с выше, чем в oбычных услoвиях.
Атмoсфернoе давление в разных тoчках местнoсти мoжет значительнo oтличаться oт давления на метеoстанции, в зависимoсти oт услoвий рельефа (при пoдъёме на 10 м давление пoнижается примернo на 1 мм рт.ст.).